Regional Weather Roundup
Issued by NWS

Current Version |  Previous Version |  Text Only |  Print | Product List |  Glossary On
Versions: 1 2 3 4 5 6 7 8 9 10 11 12 13 14 15 16 17 18 19 20 21 22 23 24 25 26 27 28
446
ASUS44 KLIX 180111
RWRLA
LOUISIANA WEATHER ROUNDUP
NATIONAL WEATHER SERVICE NEW ORLEANS LA
800 PM CDT FRI MAY 17 2024

NOTE: "FAIR" INDICATES FEW OR NO CLOUDS BELOW 12,000 FEET WITH NO
      SIGNIFICANT WEATHER AND/OR OBSTRUCTIONS TO VISIBILITY.
      SKY/WX - SKY CONDITION AND SIGNIFICANT WEATHER.
      TMP - AIR TEMPERATURE.    DP   - DEWPOINT TEMPERATURE.
      RH  - RELATIVE HUMIDITY.  PRES - PRESSURE.
      HX  - HEAT INDEX.         WCI  - WIND CHILL INDEX.

*  THESE STATIONS ARE NOT NWS OR FAA STATIONS AND ARE NOT UNDER
   NWS QUALITY CONTROL.

LAZ048-061-063-065-066-069-076-077-180200-
SOUTHEAST LOUISIANA

CITY           SKY/WX    TMP DP  RH WIND       PRES   REMARKS
N.O. INTL ARPT CLOUDY    82  78  88 CALM      29.77R
N.O. LAKEFRONT PTCLDY    84  78  82 S10       29.77R HX  95
RESERVE*       MOCLDY    79  79 100 NW7       29.78R FOG
SLIDELL        CLOUDY    83  79  88 CALM      29.76R
BATON ROUGE    MOCLDY    76  72  87 N5        29.77F
BELLE CHASSE*  MOCLDY    82  79  90 S9        29.77R HAZE
BOGALUSA*      CLOUDY    76  73  88 N5        29.81R
GALLIANO*      CLOUDY    80  76  88 SW7       29.79R FOG
NEW ROADS*     CLOUDY    71  69  95 S3        29.78F
GONZALES*      PTCLDY    78  74  88 CALM      29.76F
HAMMOND*       PTCLDY    75  73  93 CALM      29.79R
HOUMA*         PTCLDY    81  77  87 CALM      29.78S FOG

$$

LAZ041-044-053-054-180200-
SOUTHWEST LOUISIANA

CITY           SKY/WX    TMP DP  RH WIND       PRES   REMARKS
LAKE CHARLES   CLOUDY    73  70  90 CALM      29.77R
LAFAYETTE      PTCLDY    75  73  93 N3        29.78S
PATTERSON      MOCLDY    78  78 100 CALM      29.77F
SALT POINT       N/A     78  76  93 CALM      29.75
NEW IBERIA     LGT RAIN  75  73  93 NW9       29.79R FOG
CHENAULT AIRPK TSTM      73  70  88 CALM      29.78R

$$

LAZ027-028-180200-
CENTRAL LOUISIANA

CITY           SKY/WX    TMP DP  RH WIND       PRES   REMARKS
FORT JOHNSON   CLOUDY    71  69  92 NW6       29.76S
ALEXANDRIA INT CLOUDY    73  69  87 CALM      29.77R
ALEXANDRIA     CLOUDY    72  70  93 W5        29.78R

$$

LAZ001-002-180200-
NORTHWEST LOUISIANA

CITY           SKY/WX    TMP DP  RH WIND       PRES   REMARKS
SHREVEPORT     MOCLDY    81  66  61 S3        29.75S
BARKSDALE AFB  PTCLDY    76  67  75 SE6       29.75R
DTN SHREVEPORT PTCLDY    81  61  50 CALM      29.76R

$$

LAZ014-016-180200-
NORTHEAST LOUISIANA

CITY           SKY/WX    TMP DP  RH WIND       PRES   REMARKS
MONROE         CLOUDY    76  69  79 SW3       29.77R
TALLULAH       CLOUDY    74  69  85 CALM      29.77R

$$